CW5629 Weather Reports


Display with metric or nautical units.
time (UTC)temp
F
wind
direction
speed
MPH
gust
MPH
rain 1hr
in
rain 24hr
in
rain mn
in
humidity
%
barometer
mb
20260506195151 52 116 0.0 0.0 0.00 0.20 0.04 74 1013.3
20260506194116 52 116 0.0 0.0 0.00 0.20 0.04 73 1013.2
20260506193129 53 116 0.0 0.0 0.00 0.20 0.04 73 1013.1
20260506192119 53 116 0.0 0.0 0.00 0.20 0.04 72 1013.1
20260506191132 53 116 0.0 0.0 0.00 0.20 0.04 70 1013.0
20260506190119 54 100 0.0 0.0 0.00 0.20 0.04 69 1013.0
20260506185112 54 100 0.0 0.0 0.00 0.20 0.04 69 1012.9
20260506184117 54 101 0.0 0.0 0.00 0.20 0.04 69 1013.0
20260506183130 54 101 0.0 0.0 0.00 0.20 0.04 68 1012.9
20260506182121 55 100 0.0 0.0 0.00 0.20 0.04 69 1012.9
20260506181126 55 98 0.0 0.0 0.00 0.20 0.04 70 1012.9
20260506180140 55 98 0.0 1.0 0.00 0.20 0.04 68 1012.8
20260506175130 55 92 0.0 1.0 0.00 0.20 0.04 68 1012.8
20260506174116 56 107 0.0 1.0 0.00 0.20 0.04 67 1012.8
20260506173130 56 120 0.0 0.0 0.00 0.20 0.04 69 1012.8
20260506172143 57 120 0.0 1.0 0.00 0.20 0.04 68 1012.7
20260506171134 57 118 0.0 1.0 0.00 0.20 0.04 66 1012.7
20260506170140 58 136 0.0 1.0 0.00 0.20 0.04 68 1012.6
20260506165129 58 115 0.0 1.0 0.00 0.20 0.04 67 1012.6
20260506164115 58 108 0.0 0.0 0.00 0.20 0.04 68 1012.6
20260506163134 58 105 0.0 0.0 0.00 0.20 0.04 68 1012.6
20260506162119 58 109 0.0 0.0 0.00 0.20 0.04 68 1012.7
20260506161123 57 109 0.0 0.0 0.00 0.20 0.04 66 1012.7
20260506160130 58 101 0.0 1.0 0.00 0.20 0.04 65 1012.8
20260506155142 58 117 0.0 1.0 0.00 0.20 0.04 67 1012.8
20260506154114 58 110 0.0 0.0 0.00 0.20 0.04 68 1012.8
20260506153120 58 110 0.0 1.0 0.00 0.20 0.04 67 1012.8
20260506152135 57 110 0.0 2.0 0.00 0.20 0.04 68 1012.9
20260506151127 57 105 0.0 1.0 0.00 0.20 0.04 66 1012.9
20260506150139 57 106 0.0 1.0 0.00 0.20 0.04 67 1013.0
20260506145123 57 115 0.0 0.0 0.00 0.20 0.04 66 1013.0
20260506144113 57 116 0.0 0.0 0.00 0.20 0.04 68 1013.0
20260506143119 57 105 0.0 1.0 0.00 0.20 0.04 68 1013.1
20260506142137 57 94 0.0 1.0 0.00 0.20 0.04 69 1013.1
20260506141123 56 127 0.0 1.0 0.00 0.20 0.04 68 1013.2
20260506140112 56 127 0.0 1.0 0.00 0.20 0.04 69 1013.3
20260506135126 55 112 0.0 0.0 0.00 0.20 0.04 70 1013.5
20260506134140 55 108 0.0 0.0 0.00 0.20 0.04 71 1013.5
20260506133132 55 108 0.0 0.0 0.00 0.20 0.04 72 1013.5
20260506132117 54 109 0.0 1.0 0.00 0.20 0.04 75 1013.6
20260506131130 53 110 0.0 0.0 0.00 0.20 0.04 76 1013.6
20260506130144 54 110 0.0 0.0 0.00 0.20 0.04 78 1013.6
20260506125137 53 107 0.0 0.0 0.00 0.20 0.04 80 1013.7
20260506124122 53 107 0.0 0.0 0.00 0.20 0.04 81 1013.5
20260506123115 53 105 0.0 1.0 0.00 0.20 0.04 81 1013.4
20260506122122 53 94 0.0 1.0 0.00 0.20 0.04 83 1013.5
20260506121115 53 136 0.0 0.0 0.00 0.20 0.04 84 1013.6
20260506120128 52 135 0.0 1.0 0.00 0.20 0.04 85 1013.7
20260506115135 52 135 0.0 0.0 0.00 0.20 0.04 87 1013.7
20260506114127 51 121 0.0 1.0 0.00 0.20 0.04 87 1013.7
20260506113113 51 108 0.0 0.0 0.00 0.20 0.04 89 1013.7
20260506112126 50 108 0.0 0.0 0.00 0.20 0.04 89 1013.7
20260506111119 50 108 0.0 0.0 0.00 0.20 0.04 89 1013.8
20260506110126 50 108 0.0 0.0 0.00 0.20 0.04 90 1013.8
20260506105119 49 108 0.0 0.0 0.00 0.20 0.04 89 1013.8
20260506104134 49 108 0.0 0.0 0.00 0.20 0.04 89 1013.8
20260506103118 49 108 0.0 0.0 0.00 0.20 0.04 89 1013.8
20260506102128 49 108 0.0 0.0 0.00 0.20 0.04 89 1013.8
20260506101114 49 115 0.0 1.0 0.00 0.20 0.04 88 1013.7
20260506100133 49 95 0.0 0.0 0.00 0.20 0.04 88 1013.7
20260506095117 49 101 0.0 0.0 0.00 0.20 0.04 88 1013.7
20260506094151 50 124 0.0 1.0 0.00 0.20 0.04 88 1013.5
20260506093114 50 105 0.0 0.0 0.00 0.20 0.04 89 1013.5
20260506092124 50 105 0.0 1.0 0.04 0.20 0.04 89 1013.4
20260506091117 50 129 0.0 1.0 0.04 0.20 0.04 90 1013.4
20260506090129 50 105 0.0 2.0 0.08 0.20 0.04 90 1013.3
20260506085115 50 120 0.0 3.0 0.16 0.20 0.04 90 1013.2
20260506084128 50 96 0.0 1.0 0.20 0.20 0.04 90 1013.2
20260506083114 50 81 0.0 0.0 0.20 0.20 0.04 89 1013.2
20260506082127 50 122 0.0 0.0 0.16 0.16 0.03 88 1013.1
20260506081141 50 122 0.0 0.0 0.16 0.16 0.03 87 1013.1
20260506080125 50 122 0.0 1.0 0.12 0.12 0.02 86 1013.0
20260506073114 51 103 0.0 1.0 0.00 0.00 0.00 84 1012.8
20260506072127 51 113 0.0 0.0 0.00 0.00 0.00 84 1012.8
20260506071113 51 95 0.0 1.0 0.00 0.00 0.00 84 1012.8
20260506070128 51 99 0.0 1.0 0.00 0.00 0.00 84 1012.6
20260506062111 50 91 0.0 1.0 0.00 0.00 0.00 85 1012.3
20260506061124 50 79 0.0 1.0 0.00 0.00 0.00 85 1012.3
20260506060116 50 103 0.0 0.0 0.00 0.00 0.00 86 1012.3
20260506051112 48 93 0.0 0.0 0.00 0.00 0.00 87 1012.2
20260506050119 48 93 0.0 0.0 0.00 0.00 0.00 86 1012.1
20260506045131 48 93 0.0 0.0 0.00 0.00 0.00 86 1012.1
20260506044122 48 93 0.0 0.0 0.00 0.00 0.00 85 1012.2
20260506043113 49 93 0.0 0.0 0.00 0.00 0.00 85 1012.1
20260506042119 49 93 0.0 1.0 0.00 0.00 0.00 85 1012.0
20260506041111 49 94 0.0 0.0 0.00 0.00 0.00 85 1012.0
20260506040124 49 79 0.0 2.0 0.00 0.00 0.00 85 1012.1
20260506035136 49 100 0.0 0.0 0.00 0.00 0.00 85 1012.0
20260506034120 49 100 0.0 0.0 0.00 0.00 0.00 84 1012.1
20260506033134 49 100 0.0 1.0 0.00 0.00 0.00 84 1012.0
20260506032126 49 100 0.0 1.0 0.00 0.00 0.00 83 1012.1
20260506031112 49 100 0.0 1.0 0.00 0.00 0.00 83 1012.1
20260506030125 49 96 0.0 1.0 0.00 0.00 0.00 83 1012.1
20260506025111 49 88 0.0 1.0 0.00 0.00 0.00 83 1012.1
20260506024122 49 100 0.0 0.0 0.00 0.00 0.00 83 1012.2
20260506023136 49 112 0.0 1.0 0.00 0.00 0.00 82 1012.2
20260506022125 49 91 0.0 0.0 0.00 0.00 0.00 80 1012.2
20260506021112 49 91 0.0 2.0 0.00 0.00 0.00 80 1012.3
20260506020123 50 96 0.0 1.0 0.00 0.00 0.00 79 1012.3
20260506015116 50 87 0.0 1.0 0.00 0.00 0.00 79 1012.3
20260506014129 51 95 0.0 1.0 0.00 0.00 0.00 78 1012.3
20260506013113 51 103 0.0 3.0 0.00 0.00 0.00 78 1012.3
20260506012126 51 81 0.0 3.0 0.00 0.00 0.00 78 1012.4
20260506011113 51 107 0.0 1.0 0.00 0.00 0.00 78 1012.4
20260506010153 52 99 0.0 1.0 0.00 0.00 0.00 77 1012.4
20260506005118 52 113 0.0 0.0 0.00 0.00 0.00 77 1012.5
20260506004131 52 87 0.0 3.0 0.00 0.00 0.00 77 1012.5
20260506003118 52 98 0.0 2.0 0.00 0.00 0.00 77 1012.5
20260506002131 52 100 0.0 2.0 0.00 0.00 0.00 77 1012.5
20260506001117 52 91 0.0 2.0 0.00 0.00 0.00 77 1012.5
20260506000130 52 103 0.0 1.0 0.00 0.00 0.00 77 1012.6
20260505235116 52 98 0.0 2.0 0.00 0.00 0.00 76 1012.6
20260505234130 52 119 0.0 3.0 0.00 0.00 0.00 76 1012.7
20260505233118 52 100 0.0 4.0 0.00 0.00 0.00 76 1012.7
20260505232125 53 58 0.0 2.0 0.00 0.00 0.00 76 1012.7
20260505231139 53 95 0.0 2.0 0.00 0.00 0.00 75 1012.7
20260505230130 53 101 0.0 2.0 0.00 0.00 0.00 75 1012.8
20260505225116 53 93 0.0 1.0 0.00 0.00 0.00 74 1012.8
20260505224130 53 93 0.0 1.0 0.00 0.00 0.00 73 1012.8
20260505223143 53 117 0.0 3.0 0.00 0.00 0.00 72 1012.8
20260505222128 53 89 0.0 1.0 0.00 0.00 0.00 72 1012.8
20260505221142 53 99 0.0 1.0 0.00 0.00 0.00 72 1012.9
20260505220132 53 96 0.0 1.0 0.00 0.00 0.00 72 1012.7
20260505215115 53 91 0.0 0.0 0.00 0.00 0.00 71 1012.7
20260505214150 54 91 0.0 1.0 0.00 0.00 0.00 70 1012.7
20260505213143 54 91 0.0 0.0 0.00 0.00 0.00 69 1012.7
20260505212135 54 90 0.0 1.0 0.00 0.00 0.00 69 1012.7
20260505211127 54 94 0.0 3.0 0.00 0.00 0.00 68 1012.7
20260505210113 54 99 0.0 5.0 0.00 0.00 0.00 67 1012.6
20260505205125 54 98 0.0 1.0 0.00 0.00 0.00 68 1012.6
20260505204112 55 105 0.0 5.0 0.00 0.00 0.00 67 1012.5
20260505203125 55 97 0.0 1.0 0.00 0.00 0.00 67 1012.6
20260505202114 55 80 0.0 2.0 0.00 0.00 0.00 67 1012.5
20260505201127 55 100 0.0 0.0 0.00 0.00 0.00 68 1012.5
20260505200113 55 100 0.0 1.0 0.00 0.00 0.00 67 1012.4